Location: *
(35.8942°N, 23.3025°E)
Time: 23:47:20
(UTC+00:00)

NOSS 0 Rocket - Pass Details

Date: 21 September 2021
Orbit: 937 x 952 km, 70.0° (Epoch: 22 October)

Event Time Altitude Azimuth Distance (km) Brightness Sun altitude
Exits shadow 02:11:11 54° 285° (WNW) 1,147 4.0 -25.1°
Maximum altitude 02:11:30 54° 296° (WNW) 1,141 4.0 -25.1°
Drops below altitude 10° 02:17:35 10° 14° (NNE) 2,676 6.7 -23.9°
Sets 02:20:11 0° 19° (NNE) 3,622 7.5 -23.4°
